Total_Precipitation_Accumulation
0.09 0.28 0.44 0.98 1.37 3.07 5.46 5.58 9.84 3.90 7.93 5.19 4.68 5.31 5.94 6.15 4.01 4.73 3.97 3.68 4.28 3.15 3.29 2.16 1.66 1.27 3.26 1.66 0.92 0.73 0.69 1.94 0.57 3.33 3.46 0.89 0.64 0.74 0.98 0.63 0.67 0.70 0.88 0.92 1.34 1.67 2.18 1.58 1.63 1.98 2.41 2.51 1.50 1.57 1.25 1.27 1.45 1.83 2.37 2.04 1.98 2.26 2.14 1.71 2.16 1.66 1.21 1.47 1.19 1.05 1.43 1.38 1.66 1.81 1.72 1.59 1.63 1.84 2.02 1.74 2.37 2.43 2.20 1.80 1.96 2.07 2.00 1.88 1.98 2.04 1.78 1.75 2.02 1.69 1.50 1.71 1.66
0.35 0.33 0.73 1.25 3.01 5.71 5.97 4.63 6.31 5.51 4.85 5.35 4.95 4.85 4.03 5.18 6.21 3.92 3.26 4.52 2.83 3.60 2.42 1.68 1.26 0.75 0.86 0.98 1.02 0.70 0.46 0.54 0.28 0.44 0.51 0.51 0.73 0.70 0.52 0.49 0.49 0.67 0.61 0.74 1.24 1.32 1.89 2.07 1.64 2.51 2.13 2.27 1.74 1.24 1.20 1.67 1.83 1.64 1.79 2.04 1.74 2.12 1.85 1.61 2.01 1.43 1.70 1.42 1.34 1.43 1.79 1.60 1.89 2.31 2.42 2.13 2.27 2.36 1.97 2.21 2.28 2.45 2.54 2.02 2.55 2.39 2.37 1.74 1.89 1.55 1.42 1.78 1.65 2.06 1.95 1.89 1.40
0.47 0.51 1.09 1.43 2.49 3.59 4.80 3.87 8.02 5.12 5.89 4.63 5.01 6.50 4.62 5.80 4.17 3.43 3.97 4.22 3.24 2.97 2.09 2.10 1.15 1.03 0.92 1.11 1.35 1.40 1.96 0.94 0.27 0.23 0.64 0.78 0.93 1.54 0.71 0.57 0.41 0.56 0.82 0.77 0.87 1.62 1.92 2.48 1.39 1.51 1.78 1.80 1.75 1.14 1.05 1.17 1.25 1.78 1.68 1.66 1.87 1.57 1.79 1.58 1.42 1.66 1.59 1.92 1.25 1.30 1.77 1.78 1.93 2.17 2.48 2.38 2.11 2.20 1.85 2.19 2.37 2.41 2.56 2.41 2.56 2.44 2.35 1.95 2.12 2.24 1.64 1.78 1.88 1.79 1.59 1.53 1.47
0.38 0.50 1.31 1.89 4.56 3.36 6.11 5.57 6.14 6.87 5.61 4.88 5.38 4.19 5.09 3.48 3.23 3.84 3.18 2.79 2.79 2.45 2.01 2.09 2.03 1.11 2.02 1.25 1.53 0.98 1.34 2.15 0.76 0.49 0.89 0.87 0.47 0.47 0.58 0.46 0.56 0.88 0.98 0.64 1.67 1.31 1.46 1.00 0.74 1.35 1.55 1.65 1.44 1.06 0.94 1.23 1.43 1.64 1.92 1.78 2.23 1.78 1.95 1.52 1.35 1.97 1.92 1.55 1.39 1.52 1.80 1.81 2.29 2.03 2.06 2.12 2.14 1.89 2.17 1.77 2.21 2.76 2.90 2.41 2.50 2.63 2.27 2.01 2.67 2.34 1.86 1.52 1.41 1.59 1.33 1.32 1.57
0.38 0.47 0.58 2.07 3.74 7.65 5.94 5.87 6.02 4.62 5.72 5.95 5.77 3.89 4.16 3.89 3.91 3.59 2.62 3.05 2.24 3.05 1.90 1.66 1.21 1.34 2.55 1.99 1.83 3.05 2.03 0.99 1.02 0.44 0.28 0.42 0.15 0.31 0.36 0.49 0.58 0.51 0.70 1.08 0.89 1.04 1.13 0.79 0.83 0.96 1.13 1.22 1.16 0.92 0.73 0.89 1.08 1.20 1.43 1.69 2.11 2.53 1.78 1.70 1.39 1.61 2.49 2.46 2.02 1.55 2.00 1.69 2.23 2.12 2.06 2.13 2.26 2.00 2.40 2.48 2.73 2.73 2.73 2.95 2.70 2.80 2.46 2.38 2.58 2.39 1.93 1.63 1.51 1.64 1.69 1.34 1.56
0.37 0.74 1.11 2.31 7.15 3.34 4.68 5.43 5.02 5.10 4.13 5.66 4.99 5.28 3.73 4.69 4.46 2.71 1.67 1.86 1.87 2.40 2.37 1.60 2.25 1.55 1.99 1.41 1.64 1.38 1.17 3.00 0.58 0.40 0.18 0.36 0.25 0.27 0.28 0.29 0.41 0.63 0.89 0.88 1.07 1.00 1.34 0.68 0.69 1.01 0.87 1.24 1.35 1.18 0.68 0.92 0.78 0.91 1.48 1.99 2.27 2.49 1.58 1.98 2.30 2.56 2.81 2.47 2.38 2.37 2.08 2.05 2.01 2.16 2.37 1.86 2.07 2.20 2.43 2.51 2.53 2.85 2.85 2.96 2.86 2.54 3.00 2.90 2.09 1.84 1.77 1.65 1.53 1.53 1.14 1.35 1.42
0.94 1.34 2.82 2.74 3.21 3.75 7.08 5.70 4.30 4.93 4.09 5.62 4.14 3.54 2.80 4.48 4.41 2.74 1.28 1.46 0.83 1.48 1.11 1.34 0.77 0.98 1.61 1.28 0.77 1.04 0.91 0.67 1.39 0.40 0.48 0.19 0.18 0.20 0.25 0.34 0.37 0.67 0.72 1.07 1.10 0.89 0.94 0.56 0.73 0.90 1.28 1.64 1.13 0.84 1.07 0.97 1.19 1.27 1.37 2.13 2.46 2.53 2.48 2.16 2.00 2.51 2.96 2.78 2.45 3.50 2.44 2.56 2.49 2.34 2.76 2.09 2.00 2.08 1.98 2.37 2.64 2.74 2.72 2.52 2.86 2.36 2.66 2.43 2.24 1.85 1.62 1.96 1.62 1.39 1.38 1.41 1.65
0.27 2.38 2.81 3.87 5.41 4.70 6.47 3.69 4.81 4.68 4.70 5.18 3.34 2.78 3.33 4.03 3.02 3.31 1.97 3.35 1.01 1.93 0.96 1.19 0.90 1.87 2.26 1.70 2.46 1.29 0.76 1.13 0.76 0.36 0.61 0.41 0.15 0.21 0.25 0.30 0.49 0.56 0.67 0.60 0.84 0.86 0.76 0.62 0.66 0.71 0.80 1.22 1.15 1.23 1.29 1.37 1.48 1.58 2.12 2.61 2.24 2.31 2.64 2.27 2.39 2.54 3.08 2.79 2.98 3.27 2.79 3.15 3.40 2.94 3.38 2.94 2.53 2.54 2.48 2.13 2.88 2.64 2.62 2.42 2.25 1.94 1.81 2.62 2.34 2.36 1.88 1.52 1.71 1.57 1.13 1.28 1.26
2.06 1.33 2.35 3.35 5.95 4.12 4.18 4.68 4.45 4.72 4.55 5.08 4.02 3.09 3.14 3.28 3.18 3.11 2.48 1.85 1.38 1.45 1.41 1.42 1.52 2.88 1.93 1.62 1.52 1.56 1.26 1.25 0.82 0.69 0.29 0.51 0.26 0.22 0.26 0.36 0.33 0.74 0.62 0.71 0.72 0.88 1.17 0.86 0.66 0.88 1.13 1.30 1.50 1.28 1.55 1.68 1.54 1.87 2.04 2.02 2.08 2.45 1.99 2.20 2.59 2.40 2.74 2.75 3.10 3.80 3.81 3.20 3.91 2.85 3.44 3.01 3.17 2.79 2.52 2.38 3.03 2.49 2.50 2.32 2.00 2.19 1.92 2.43 2.29 2.32 2.04 1.99 1.73 1.50 1.43 1.14 1.17
1.70 1.90 5.63 3.91 3.58 5.17 4.30 3.02 4.24 5.50 4.36 4.37 4.08 3.68 3.11 2.82 3.10 2.42 2.36 1.91 2.28 2.22 2.07 1.80 1.28 2.61 1.23 1.63 1.36 1.55 1.76 1.38 0.91 0.69 0.41 0.57 0.80 0.53 0.24 0.33 0.27 0.53 0.71 0.88 0.88 0.99 0.88 1.20 0.94 0.94 1.38 1.47 1.57 1.52 1.51 1.72 2.13 1.79 1.94 1.70 1.93 1.91 2.13 2.12 2.37 2.67 2.74 3.67 4.19 3.89 4.08 3.20 3.11 3.47 3.11 3.51 2.71 2.57 2.66 2.58 2.81 2.55 2.10 2.20 1.82 1.76 1.90 2.18 2.16 2.09 1.95 1.89 1.58 1.26 1.53 1.45 1.23
3.60 1.88 1.47 4.12 4.52 3.64 4.47 3.96 4.42 4.55 3.87 3.79 3.64 2.65 3.31 2.87 2.43 2.70 2.62 2.40 1.45 2.15 1.07 1.43 1.38 1.38 1.50 1.27 2.63 1.59 2.00 1.24 1.21 1.06 1.27 0.77 0.55 0.53 0.45 0.18 0.30 0.37 0.46 0.64 0.61 0.68 0.88 1.35 1.25 1.28 1.37 1.72 1.76 1.52 1.28 1.58 1.48 1.26 1.59 1.79 2.27 1.95 2.19 2.82 2.69 2.65 2.95 3.66 4.24 3.94 3.80 4.11 4.10 3.36 3.84 3.78 3.65 2.60 2.75 3.01 2.94 2.62 2.29 2.31 1.63 1.49 1.58 1.52 1.98 2.18 1.52 1.33 1.84 1.41 1.52 1.20 1.09
3.11 3.25 4.42 5.21 4.03 4.42 4.75 4.59 5.47 5.65 3.84 3.60 3.53 2.74 2.36 2.37 3.10 2.68 2.56 2.71 2.07 2.10 1.52 1.09 1.16 1.40 1.34 1.27 1.36 2.39 1.58 1.43 0.97 1.05 0.82 0.73 0.45 0.66 0.38 0.24 0.26 0.32 0.32 0.46 0.61 0.97 0.93 1.57 1.65 1.90 1.67 1.74 2.28 1.84 1.58 1.60 1.58 1.49 1.82 2.53 2.38 2.37 2.53 3.00 3.00 2.63 3.04 3.80 4.08 3.86 3.94 3.94 3.65 4.16 3.82 3.81 3.88 3.25 3.57 2.83 2.99 3.06 2.28 2.10 1.90 1.25 1.42 1.65 1.59 1.74 1.65 1.27 1.29 1.59 1.15 1.05 0.91
2.09 1.33 4.42 3.75 3.20 4.29 3.87 4.52 5.14 5.09 4.94 4.49 3.42 2.99 2.72 2.41 2.40 2.33 2.40 1.55 1.62 2.56 1.60 1.36 0.83 1.35 1.33 1.71 1.83 2.24 2.36 1.28 0.82 0.60 0.53 0.79 0.59 0.50 0.22 0.24 0.60 0.62 0.39 0.56 0.56 0.73 0.83 1.15 1.62 2.14 2.38 2.16 2.05 2.06 2.12 1.92 1.94 2.24 2.26 2.33 2.59 2.93 2.96 2.45 2.98 2.84 3.67 3.95 4.73 4.35 3.68 3.42 3.34 3.39 3.95 3.14 3.65 3.15 3.14 2.68 3.05 2.67 2.28 2.59 1.87 1.30 1.60 1.47 1.80 1.89 1.68 1.35 1.59 1.13 0.90 0.93 0.72
0.67 1.52 3.15 4.31 2.97 4.18 3.68 4.67 4.08 5.72 5.75 4.39 3.06 2.93 2.29 1.94 1.97 1.91 1.73 1.88 1.45 2.08 0.61 0.98 0.98 1.01 0.78 0.60 2.51 2.69 1.61 1.40 0.78 0.66 0.37 0.48 0.30 0.51 0.18 0.24 0.69 0.78 0.59 0.37 0.73 0.76 1.01 1.12 1.66 1.89 2.10 2.47 2.91 2.35 2.43 2.15 2.60 2.48 3.01 2.59 3.10 3.44 3.60 3.11 3.19 2.97 3.43 3.00 3.37 3.79 4.16 3.94 3.77 3.48 3.81 3.80 3.97 3.50 3.12 2.67 2.64 2.62 2.40 2.58 2.45 2.03 1.83 1.60 1.55 1.86 1.81 1.27 1.22 0.96 0.85 0.92 1.13
0.46 0.73 2.84 2.29 3.39 2.32 3.05 5.36 5.67 3.82 6.00 4.59 2.44 2.28 2.11 1.82 1.82 1.48 1.74 2.06 1.47 1.05 0.58 0.38 0.64 3.20 1.67 2.30 1.95 2.15 1.60 1.35 0.77 0.48 0.30 0.60 0.38 0.60 0.39 0.38 0.34 0.40 0.69 0.53 0.77 1.20 1.03 1.07 1.16 1.57 1.98 2.09 2.13 2.37 3.15 3.05 2.59 2.94 2.86 3.20 3.39 3.18 4.12 4.15 3.79 4.80 3.94 3.54 3.85 3.53 4.24 4.67 4.94 5.00 4.57 4.38 4.41 3.96 3.34 3.04 2.87 2.79 3.22 2.69 2.90 2.72 2.45 2.20 2.51 1.79 1.41 1.27 0.76 0.88 0.95 0.82 1.20
0.21 0.92 2.04 3.72 3.45 2.57 2.73 3.45 3.29 4.78 5.00 4.72 3.20 2.27 2.42 2.17 1.94 1.52 1.51 1.16 0.65 0.82 0.95 1.48 0.76 1.89 1.28 1.80 1.09 0.79 0.81 0.82 0.54 0.84 0.90 0.81 0.89 0.98 0.76 0.56 0.54 0.37 0.39 0.39 0.92 0.87 0.81 1.04 1.13 1.37 1.38 1.54 2.26 2.42 2.30 2.90 2.75 3.35 3.11 3.64 3.23 3.79 4.03 4.07 4.52 4.85 5.34 4.88 4.56 4.26 4.48 5.07 5.18 4.16 5.03 3.92 4.85 4.53 3.77 3.32 2.98 2.84 3.04 2.59 2.72 2.53 2.91 2.36 2.70 1.59 1.36 1.19 1.16 1.32 1.11 1.19 1.41
0.22 1.01 2.53 2.57 4.15 3.07 4.34 4.67 2.37 5.47 3.17 4.06 2.02 2.14 2.50 1.56 1.11 1.88 1.09 1.09 1.28 0.50 0.83 0.60 1.28 1.01 1.41 1.53 0.96 0.67 0.45 0.62 0.44 0.36 0.38 0.70 0.81 1.06 1.01 0.90 0.84 0.69 0.60 0.57 0.84 0.72 1.15 1.08 1.43 1.34 1.32 1.53 1.78 1.57 2.24 2.40 2.41 2.78 3.37 3.95 4.33 4.94 4.62 4.67 4.65 5.59 6.47 5.45 5.32 5.58 4.65 4.25 4.62 4.11 3.91 4.13 4.21 3.77 3.52 3.72 3.16 2.52 2.34 3.11 2.82 3.22 2.31 2.52 2.27 2.38 2.00 1.62 1.65 1.41 1.52 1.84 1.39
0.34 1.80 1.61 2.49 2.52 2.80 3.57 4.19 4.01 2.79 3.50 2.70 2.18 2.09 2.51 1.82 1.09 1.54 0.68 1.03 1.02 0.57 0.90 0.69 0.88 1.14 1.17 0.78 0.68 0.51 0.26 0.18 0.13 0.16 0.13 0.32 0.41 0.70 0.72 0.76 0.62 0.61 0.51 0.58 0.65 0.74 0.68 1.44 1.07 0.92 1.16 1.27 1.61 1.47 1.48 2.04 2.72 3.09 3.22 4.26 4.31 4.96 5.22 4.74 4.77 5.04 5.30 5.11 6.23 5.41 5.25 5.17 4.70 4.21 4.18 4.44 4.23 3.31 3.71 3.24 3.02 2.43 2.68 2.70 2.83 3.13 2.25 2.65 2.12 2.20 2.24 2.25 2.22 1.86 1.97 1.87 1.80
0.45 0.82 1.78 2.66 1.79 1.57 1.92 1.95 3.35 3.56 2.47 2.28 2.28 1.85 2.19 2.22 0.80 1.11 2.27 1.39 1.03 0.76 1.13 1.31 0.97 0.93 0.91 0.79 0.65 0.49 0.23 0.44 0.68 0.42 0.34 0.38 0.25 0.34 0.69 0.74 1.05 0.85 0.65 0.59 0.71 0.68 0.73 1.11 0.59 0.83 1.01 1.56 1.47 1.73 1.61 2.23 2.42 3.04 4.16 3.50 4.35 4.96 4.60 3.75 3.93 4.04 4.17 4.25 4.37 4.73 5.71 4.61 4.14 4.01 4.16 3.51 4.08 3.43 2.17 2.97 3.17 3.03 3.44 2.61 2.50 3.04 3.06 2.88 2.03 2.01 2.02 2.37 2.47 2.60 2.20 2.11 1.48
0.34 0.67 2.13 2.52 1.12 1.69 1.29 2.73 2.73 3.14 2.36 2.11 2.20 1.42 2.24 1.66 1.95 0.79 1.50 1.49 1.37 1.38 1.53 0.95 1.51 1.36 0.97 0.96 0.73 0.55 0.37 0.43 0.48 0.82 0.84 0.73 1.01 0.80 1.15 0.97 1.03 0.98 1.08 1.08 1.16 1.20 1.24 1.08 1.13 1.99 2.50 2.29 1.78 2.30 2.11 2.80 2.82 3.92 3.68 2.99 3.65 4.28 4.26 3.81 4.35 3.90 4.39 4.47 4.45 4.54 4.34 3.70 3.88 4.41 3.06 3.49 3.77 3.03 3.05 3.15 3.32 3.10 3.42 2.73 2.62 2.66 2.44 2.62 2.12 1.82 1.93 1.86 2.17 2.88 2.91 2.51 1.77
1.11 0.61 1.18 2.29 1.01 1.33 1.48 2.55 2.93 2.58 2.42 2.97 1.94 1.86 1.83 1.48 1.64 1.34 1.18 1.87 1.53 1.84 1.18 1.86 2.05 1.63 0.82 0.99 0.70 0.58 0.52 0.41 0.86 0.64 0.54 0.60 1.12 1.35 1.61 1.11 1.15 0.79 0.84 0.86 1.28 1.23 1.64 1.29 1.48 1.83 1.74 1.87 1.75 1.84 2.07 2.59 2.99 3.52 4.33 4.02 3.32 3.31 3.43 3.07 3.37 3.67 3.59 3.32 3.61 4.26 3.25 3.19 2.82 3.58 3.75 4.28 4.10 3.11 2.30 2.45 3.19 2.74 2.21 2.83 2.63 2.66 2.61 2.65 2.40 2.76 2.84 2.51 2.14 2.08 2.08 2.03 1.99
0.09 0.48 0.59 0.81 0.83 1.17 1.14 1.33 1.38 1.99 3.07 4.03 2.20 1.74 2.33 1.79 0.85 1.10 1.12 1.90 2.42 1.02 1.30 1.42 1.72 1.72 1.22 0.95 0.81 0.63 0.72 0.42 0.97 0.92 1.00 1.01 1.36 0.77 0.59 1.25 1.15 1.01 0.83 0.50 1.23 1.37 1.27 1.66 1.41 2.21 2.12 2.25 1.85 2.46 2.84 2.37 2.72 3.09 3.22 3.20 3.06 2.69 3.03 3.22 3.10 3.53 2.94 3.49 5.07 3.84 3.49 3.90 3.67 3.26 3.50 2.78 3.08 2.21 2.27 2.63 2.34 2.85 2.70 2.49 2.73 2.54 2.83 3.06 2.50 3.03 2.51 2.15 1.98 2.03 1.58 1.58 1.59
0.81 0.63 0.58 0.57 0.42 0.95 0.52 1.08 1.87 2.50 2.54 2.71 1.68 2.27 1.53 1.42 1.42 1.26 1.01 2.30 1.63 0.98 0.70 1.08 1.09 1.11 1.25 0.85 0.83 0.68 0.51 0.44 0.90 0.85 0.54 1.04 1.08 1.41 1.27 0.85 0.98 0.80 0.43 0.89 1.03 1.33 1.23 1.92 1.32 2.16 2.15 1.85 1.83 2.11 2.32 2.44 2.60 2.03 3.28 2.72 2.41 2.84 2.85 4.27 4.47 3.56 3.62 4.15 4.32 4.23 4.41 4.42 3.50 2.86 2.94 3.40 2.78 2.90 2.35 2.45 2.69 2.77 3.05 2.49 2.47 1.73 2.18 2.71 2.69 2.51 1.81 1.69 2.03 2.15 1.59 1.51 1.68
0.11 0.75 0.44 0.70 0.52 0.23 0.46 1.28 2.19 2.29 2.05 2.55 2.56 1.70 1.76 1.42 1.70 0.89 1.46 0.95 1.07 0.58 0.95 0.89 1.03 1.33 1.36 1.29 0.88 0.87 0.61 0.46 0.77 1.30 0.79 1.49 1.51 1.39 0.89 0.86 0.68 0.74 0.56 1.14 0.88 1.19 1.48 1.99 1.64 1.94 2.16 1.70 2.25 2.03 2.78 2.09 1.98 2.00 2.31 2.82 2.47 3.23 2.68 3.45 3.87 4.57 4.92 4.09 3.83 4.47 4.59 4.45 3.85 3.26 2.84 3.43 3.19 3.29 2.57 2.24 2.83 3.13 3.61 3.20 2.75 3.21 2.72 2.50 2.18 3.06 2.06 2.07 1.91 1.91 1.19 1.38 1.80
0.24 0.28 0.40 0.48 0.62 0.51 0.76 0.98 2.19 3.16 4.65 3.43 2.35 1.83 2.30 1.28 1.12 0.53 1.13 0.62 0.60 0.73 0.25 0.69 0.87 1.37 1.05 0.90 0.90 0.80 0.54 0.49 1.03 0.76 1.08 1.01 1.04 0.88 0.40 0.56 0.76 1.01 1.09 1.03 1.00 1.26 1.75 1.24 1.65 1.50 1.88 1.75 1.77 1.97 1.84 2.30 1.84 1.73 2.03 2.51 2.77 2.81 2.75 3.07 3.06 4.31 5.19 4.47 4.98 5.03 4.61 5.48 4.75 4.16 4.67 4.14 3.53 3.08 3.20 3.76 3.76 3.86 4.09 3.51 3.21 3.50 2.92 2.25 2.20 1.81 2.69 2.22 2.22 1.82 1.52 1.71 1.58
0.07 0.37 0.12 0.35 0.56 0.61 1.11 1.19 1.71 1.80 2.64 3.45 3.41 3.02 2.33 1.37 0.68 1.36 1.41 0.84 0.78 0.35 0.37 0.21 0.45 0.44 0.91 0.93 1.29 0.65 1.05 1.00 0.60 0.88 1.10 0.88 0.78 0.48 0.93 1.02 1.24 1.45 1.29 1.18 1.07 1.49 1.74 1.40 1.22 1.05 1.56 1.77 1.95 1.85 1.72 2.30 2.52 2.18 2.31 2.72 2.72 3.07 3.17 2.98 3.09 3.13 4.42 5.05 5.06 5.94 6.19 6.08 4.07 4.02 3.35 4.08 3.99 3.54 3.10 2.89 2.86 2.83 3.19 3.15 3.88 3.00 2.94 2.86 2.39 2.25 2.21 1.71 1.46 1.98 1.34 1.36 1.52
0.02 0.12 0.45 0.49 1.00 0.74 1.16 1.02 1.16 1.96 2.18 2.77 4.20 3.60 2.97 1.38 0.72 1.46 1.28 0.43 0.36 0.59 0.20 0.19 0.69 0.68 0.54 0.56 0.96 0.64 0.93 1.17 1.64 0.86 0.72 0.65 0.63 0.72 0.88 0.98 1.01 0.95 0.95 1.22 1.36 1.59 1.95 2.01 1.87 1.32 1.18 1.12 1.67 1.73 1.95 2.11 2.60 2.48 2.04 2.45 2.76 2.66 3.15 3.05 3.28 3.12 3.14 5.07 4.75 4.93 5.25 5.33 4.15 4.44 3.33 2.97 3.19 3.39 3.12 3.05 2.79 3.04 3.55 3.22 3.60 4.19 3.33 2.55 2.62 2.68 2.79 2.70 1.77 1.84 1.56 2.09 1.08
0.04 0.07 0.34 0.61 0.73 0.73 1.04 1.80 1.19 1.97 2.71 2.87 6.20 4.92 3.25 2.49 1.20 1.50 0.82 0.42 0.61 0.68 0.26 0.26 0.16 0.28 0.46 0.57 0.98 1.34 0.81 0.42 0.93 0.59 0.87 0.89 0.52 0.92 0.83 1.04 1.31 1.06 1.76 1.32 1.37 1.28 1.20 1.28 1.89 1.90 2.31 1.33 1.32 1.42 1.67 1.40 2.66 2.76 2.02 2.41 2.22 2.12 2.56 1.90 2.70 2.62 2.98 4.67 3.98 5.08 5.87 3.98 3.33 2.99 2.77 2.93 2.82 3.05 3.02 3.78 3.64 3.48 3.18 3.28 2.85 3.76 4.30 3.10 2.76 3.00 2.44 3.11 2.25 1.67 1.38 1.53 2.25
0.02 0.18 0.72 0.96 1.17 1.26 1.48 1.77 2.25 2.44 2.07 2.89 4.09 4.05 4.64 5.19 2.49 1.21 0.74 0.44 0.46 0.59 0.25 0.75 0.53 0.44 0.40 0.50 0.66 0.70 1.24 0.44 0.90 0.45 0.84 0.84 1.14 1.43 1.15 1.02 1.32 1.73 2.33 1.74 1.16 1.54 1.33 0.91 1.02 1.67 1.59 1.35 1.65 1.78 1.80 1.56 1.76 1.85 1.75 1.67 1.10 1.15 2.38 2.33 2.61 2.65 2.50 4.05 3.58 3.92 4.12 3.93 2.85 2.45 2.57 2.75 3.37 2.83 3.38 3.53 3.25 3.08 2.63 2.88 3.44 3.94 4.45 3.84 3.00 2.30 2.39 2.24 1.89 1.84 1.66 1.42 1.16
0.03 0.07 0.52 0.64 1.07 1.58 1.35 2.10 2.46 2.27 2.81 2.63 2.76 3.35 2.87 3.70 3.67 1.29 0.58 0.64 0.56 0.35 0.53 0.18 0.69 0.68 0.33 0.42 0.58 0.31 0.62 0.53 0.51 0.46 0.67 1.22 1.05 1.78 1.23 1.58 1.46 2.07 2.46 2.10 1.58 1.34 0.81 0.74 0.50 0.76 0.85 1.22 2.01 2.20 1.84 1.52 1.36 1.51 1.66 1.28 1.11 1.60 1.84 1.94 2.51 2.40 2.53 2.88 2.97 2.98 3.64 3.99 3.68 3.46 2.71 3.33 3.46 3.08 3.10 2.91 2.70 2.62 2.34 2.92 3.39 3.86 3.44 3.42 2.92 1.93 2.32 1.75 1.55 1.46 1.23 1.15 1.11
0.35 0.16 0.27 0.77 0.81 2.06 1.34 1.21 1.94 2.08 1.77 1.41 2.03 2.67 2.52 3.52 1.98 1.76 1.41 1.40 0.45 0.58 0.39 0.38 0.51 0.59 0.73 0.50 0.32 0.37 0.29 0.63 0.57 0.63 0.83 0.53 0.93 0.89 1.50 1.81 1.82 2.66 2.02 2.03 1.28 0.91 0.50 0.87 0.58 0.42 0.61 0.80 0.89 1.45 1.38 1.14 0.79 1.17 1.41 1.59 1.42 2.13 2.81 1.73 1.22 2.01 2.18 2.54 3.09 2.51 2.69 3.44 3.63 3.19 3.35 3.55 2.67 2.68 2.61 2.79 2.39 2.29 3.05 3.37 3.71 3.62 3.34 2.55 2.44 2.20 2.43 2.20 1.55 1.37 1.29 0.89 0.86
0.12 0.16 0.60 0.32 0.52 2.53 1.32 0.79 1.59 1.53 1.44 1.49 1.31 2.53 2.81 2.39 1.88 1.34 2.53 2.99 1.13 0.79 0.35 0.20 0.79 0.94 0.39 0.33 0.43 0.26 0.35 0.51 0.68 0.56 0.69 0.70 0.63 0.79 0.87 1.84 2.24 2.26 2.39 2.04 1.59 0.99 0.94 1.14 1.03 1.05 0.80 0.53 0.82 1.58 1.55 1.45 1.52 2.26 2.19 2.28 2.78 2.82 2.12 2.27 1.72 2.28 2.09 2.33 2.45 1.97 2.86 3.43 3.25 3.95 3.50 3.21 2.73 2.55 2.83 2.74 2.34 3.03 2.80 3.29 3.15 3.01 2.79 2.64 2.11 1.68 1.72 2.04 1.34 1.22 1.35 1.06 0.91
0.07 0.12 0.29 0.57 0.47 1.25 1.70 1.72 1.38 1.66 1.87 1.85 2.11 2.94 2.20 1.98 1.80 1.52 1.26 2.05 0.94 0.47 0.49 0.17 0.42 0.46 0.27 0.41 0.17 0.15 0.26 0.15 0.40 0.90 1.36 0.49 0.69 0.39 0.54 1.52 2.12 2.20 1.61 1.68 1.21 1.29 0.83 0.96 1.26 0.91 0.87 1.04 0.88 1.16 1.78 1.77 2.04 2.72 2.48 2.25 2.33 2.63 2.48 1.90 1.41 1.50 1.70 2.52 2.58 2.26 3.04 3.75 3.53 3.44 3.00 2.47 2.53 2.48 2.81 2.61 2.57 2.59 3.27 3.04 2.94 2.80 2.52 2.09 2.53 1.67 1.54 1.70 1.28 1.32 0.96 0.78 0.54
0.15 0.05 0.42 0.92 0.94 0.84 2.05 0.86 1.64 1.74 1.96 2.25 1.05 1.93 1.95 1.07 1.43 1.26 1.28 1.41 0.94 0.30 0.27 0.38 0.89 0.47 0.22 0.22 0.13 0.15 0.37 0.40 0.62 0.75 0.58 0.56 0.65 0.69 0.40 0.68 1.53 1.60 1.44 1.20 1.21 0.90 0.83 0.99 1.04 1.09 0.99 0.48 1.25 1.63 2.13 1.99 2.31 2.57 2.18 1.92 1.76 1.84 2.33 2.87 2.42 2.40 2.09 2.12 1.86 1.94 1.71 2.05 3.46 2.88 3.04 3.00 3.13 2.55 2.63 2.81 2.80 2.48 2.71 2.63 2.77 2.50 2.16 2.70 2.89 2.20 1.53 1.43 1.24 1.19 1.48 0.65 0.87
0.23 0.44 0.30 0.73 0.51 1.01 1.30 0.83 1.33 1.39 1.41 2.13 1.47 1.92 1.83 1.55 0.82 1.44 1.14 1.37 0.95 0.42 0.22 0.69 0.60 0.16 0.24 0.14 0.36 0.58 0.50 0.31 0.36 0.47 0.44 0.35 0.52 0.24 0.55 0.85 0.69 1.28 1.50 1.23 1.08 0.97 1.15 1.23 1.07 1.04 0.71 1.04 1.51 1.65 1.93 1.48 1.54 1.73 1.46 1.34 1.25 1.57 3.22 2.45 2.85 2.14 2.06 2.35 1.76 1.98 2.64 2.92 3.05 2.96 3.45 3.17 3.13 3.37 3.35 2.74 2.68 2.14 2.63 2.57 2.46 2.31 2.65 2.23 2.15 1.80 1.59 1.69 1.04 0.87 0.84 0.71 0.88
0.18 0.35 0.60 0.76 1.09 1.34 1.60 1.05 0.68 0.89 1.64 1.81 2.07 1.84 2.16 1.64 2.10 2.23 2.16 1.05 1.37 0.57 0.54 0.89 0.43 0.38 0.48 0.69 0.53 0.86 0.51 0.68 1.14 0.56 0.33 0.33 0.52 0.51 0.56 0.53 0.77 1.02 1.38 1.46 1.03 1.06 1.48 1.16 0.98 0.98 0.64 0.80 1.15 1.12 1.12 1.17 0.88 1.68 1.38 1.36 0.96 1.23 2.08 2.41 1.41 1.23 2.25 2.32 1.74 2.87 2.27 2.13 2.77 3.15 4.50 4.04 3.34 3.49 2.47 2.37 2.49 1.76 2.04 2.32 2.35 2.08 1.73 2.19 1.79 1.69 1.63 1.71 1.54 0.77 0.82 0.86 0.92
0.03 0.10 0.22 0.77 0.52 0.79 0.82 1.11 0.90 1.49 1.99 1.76 2.58 2.08 2.01 1.55 1.76 2.19 2.65 1.85 1.79 1.28 1.13 1.09 0.77 0.91 1.08 1.41 1.26 0.50 0.52 1.18 0.89 0.69 0.58 0.42 1.23 1.03 1.04 0.90 0.83 0.87 0.89 0.71 0.93 1.45 1.39 1.22 1.26 1.10 0.90 1.39 1.09 0.95 1.23 0.75 0.77 1.29 1.00 0.77 1.12 1.26 1.37 1.14 1.37 1.48 1.89 2.03 2.55 2.68 2.83 2.38 2.41 2.90 2.72 2.75 2.29 2.09 1.80 2.58 1.92 1.84 2.38 2.21 1.87 1.67 1.81 2.13 1.82 1.86 1.97 2.21 1.42 1.10 0.73 1.02 0.95
0.12 0.07 0.32 0.47 0.50 1.00 0.94 1.18 1.27 2.43 1.69 1.97 2.11 2.45 2.76 2.32 2.17 2.26 2.61 1.62 1.44 0.84 0.70 0.70 1.51 0.79 1.56 1.10 1.17 0.82 0.76 0.82 0.90 0.64 1.01 1.00 1.22 1.05 0.82 0.79 1.12 0.79 0.67 0.85 0.93 1.49 1.59 1.42 1.53 1.30 0.99 1.13 1.19 1.21 0.79 1.00 1.29 1.05 1.20 1.43 1.34 0.92 0.79 0.86 0.88 0.97 1.83 2.57 1.64 2.09 1.81 1.67 1.31 1.10 1.56 1.31 1.58 1.98 1.97 1.95 1.87 1.78 1.39 1.63 1.84 1.51 1.93 1.79 1.70 1.73 1.79 1.73 1.59 1.20 1.15 1.09 1.32
0.04 0.12 0.39 0.59 0.48 0.62 0.79 1.67 1.30 2.02 1.57 2.96 2.92 2.81 3.60 3.12 2.65 2.67 2.44 1.50 1.78 1.37 1.12 1.50 0.85 1.10 1.10 1.28 0.75 0.63 0.82 0.77 0.69 1.21 1.19 1.19 1.34 1.07 0.61 0.81 0.84 1.03 1.08 0.85 1.34 1.61 1.41 1.58 1.77 1.93 1.39 1.10 0.93 1.20 0.91 1.08 1.03 1.36 1.38 1.51 1.10 0.87 0.85 0.90 1.02 1.43 1.87 2.01 1.29 1.68 1.72 0.96 1.16 1.04 1.33 1.39 1.06 1.31 2.16 1.51 1.56 1.97 1.58 1.55 1.11 1.29 1.30 1.47 1.55 1.17 1.53 1.88 1.07 1.17 1.00 1.31 1.36
0.02 0.04 0.14 0.23 0.70 0.31 0.72 1.73 1.73 2.80 1.02 3.03 2.41 1.64 3.14 3.84 3.33 3.28 2.56 1.76 2.08 2.54 1.88 1.17 1.57 1.94 1.30 0.97 1.02 0.46 0.49 1.07 0.99 0.95 1.07 2.10 1.38 1.37 1.18 1.18 1.25 0.77 1.13 0.92 1.20 1.40 1.27 1.50 1.78 1.60 1.03 0.89 0.68 0.82 0.70 1.21 1.44 1.69 1.29 1.01 1.55 0.74 0.94 1.00 0.81 1.11 1.44 1.89 1.71 2.27 1.79 1.24 1.58 1.48 0.98 1.11 1.05 1.25 1.29 1.12 1.47 1.29 1.41 1.60 1.37 1.21 1.12 0.98 1.42 1.95 1.76 1.64 1.14 1.14 0.92 0.81 0.87
0.00 0.00 0.02 0.12 0.12 0.34 0.42 0.94 0.48 1.75 1.81 1.26 2.52 3.08 3.39 2.60 3.22 2.45 2.53 1.84 2.72 2.38 2.70 2.12 1.94 1.88 1.43 1.25 0.81 0.89 0.82 0.74 1.38 1.19 1.65 2.04 1.14 1.46 1.19 1.14 1.49 1.25 1.01 0.87 1.03 1.42 1.28 1.35 1.29 1.07 1.06 0.45 0.44 0.64 0.61 1.33 1.55 1.25 1.35 1.03 1.04 1.27 0.72 0.91 1.17 0.99 1.27 1.83 1.91 1.45 2.10 2.09 1.46 1.39 0.83 0.66 1.20 1.06 1.42 1.54 1.41 1.42 1.43 1.13 1.38 1.25 1.07 0.87 0.94 1.07 1.12 1.31 1.51 1.41 0.89 0.60 0.66
0.00 0.00 0.02 0.03 0.03 0.40 0.13 0.21 0.20 0.82 1.59 0.85 0.98 2.17 3.50 1.69 1.88 1.35 1.74 2.16 2.00 2.31 2.30 2.08 1.65 1.44 0.68 0.73 0.66 1.36 1.93 1.81 1.60 1.10 1.17 1.80 1.58 1.47 1.32 1.28 1.95 1.44 1.19 1.56 1.91 1.54 1.08 0.88 0.90 1.07 1.16 0.81 0.38 0.57 0.94 0.57 0.85 1.04 1.32 1.01 1.01 0.75 0.47 0.70 1.09 1.35 0.90 1.83 1.94 1.96 2.26 1.97 1.59 1.63 1.73 1.51 1.07 0.96 1.12 0.96 1.27 1.27 1.50 1.29 1.07 1.07 1.43 0.95 1.10 1.12 0.99 1.08 1.08 1.28 1.64 0.98 0.66
0.00 0.04 0.00 0.00 0.03 0.24 0.20 0.29 0.46 0.74 1.36 1.25 0.67 1.00 2.58 1.88 1.73 1.91 1.96 1.59 1.91 2.75 1.93 1.95 1.93 1.49 0.82 0.83 0.80 1.41 2.71 2.87 1.81 2.01 2.06 1.60 1.75 1.32 1.30 1.13 1.34 1.78 1.58 1.69 1.53 1.54 1.29 1.33 1.36 1.13 0.86 1.02 0.88 1.22 1.03 0.66 1.01 1.03 0.87 1.08 0.90 0.87 0.42 0.75 1.41 1.89 1.73 1.73 2.04 1.95 1.70 1.51 1.33 1.69 1.69 1.32 1.28 1.28 1.21 1.29 1.17 1.05 0.98 1.10 1.01 1.30 1.13 0.72 0.77 0.97 0.95 0.77 0.92 1.11 1.23 0.97 0.77
0.01 0.00 0.02 0.01 0.04 0.08 0.03 0.20 0.40 0.84 0.49 0.93 0.83 0.40 1.50 1.77 1.61 1.27 1.95 1.88 1.84 2.21 1.59 2.27 1.96 1.09 1.23 0.62 1.20 1.76 2.58 2.90 2.96 2.27 1.84 1.72 2.23 1.58 1.43 1.99 1.73 1.12 1.70 2.77 2.59 2.35 2.02 1.58 0.86 1.24 1.25 0.83 1.12 0.91 0.78 0.79 0.84 0.82 0.83 0.72 1.33 0.74 0.76 1.23 0.88 1.45 1.77 2.36 1.68 1.01 1.36 1.74 1.67 1.06 1.09 0.93 1.10 0.80 0.83 1.14 0.74 0.72 0.71 0.98 0.68 0.54 0.49 0.66 0.57 1.05 0.91 0.75 0.90 0.93 1.13 1.16 0.99
0.02 0.01 0.01 0.01 0.09 0.03 0.01 0.03 0.13 0.26 0.17 0.91 0.59 0.44 0.99 1.11 1.64 1.05 1.73 2.51 2.05 2.11 2.17 1.58 1.47 0.94 0.75 0.85 0.86 1.13 1.93 2.11 2.51 2.28 2.12 1.78 2.56 1.97 1.72 1.82 1.55 1.29 1.70 2.34 2.52 2.33 2.07 2.79 2.84 2.10 1.85 1.76 1.63 1.37 0.88 0.76 1.21 1.30 1.13 1.20 0.57 1.13 0.98 1.82 1.58 0.71 1.11 1.01 1.00 1.69 1.35 1.38 0.94 1.16 0.86 0.76 0.61 0.65 0.96 0.77 0.77 1.01 0.59 0.71 0.68 0.97 0.74 0.53 0.43 0.64 0.65 0.71 0.57 0.92 0.81 1.29 1.40
0.00 0.00 0.00 0.00 0.04 0.07 0.05 0.10 0.24 0.29 0.13 0.37 0.25 0.43 0.69 1.16 1.75 1.28 1.66 1.72 1.29 1.36 1.54 1.31 1.55 0.97 0.72 0.79 0.87 0.92 1.36 1.52 2.77 2.81 2.11 2.70 3.17 3.11 2.88 2.10 1.89 1.69 2.30 2.26 3.23 4.00 3.16 2.93 2.38 2.54 2.41 1.82 1.69 1.32 0.82 1.06 1.32 1.65 1.56 1.18 0.96 0.88 1.10 1.34 1.49 1.24 0.98 1.25 1.38 0.87 0.93 1.30 0.67 0.53 0.79 0.62 0.75 0.66 0.78 0.72 0.69 0.91 0.84 0.66 0.66 0.98 0.85 0.68 0.47 0.72 0.76 0.61 0.80 0.70 0.93 0.91 1.10
0.00 0.00 0.00 0.01 0.02 0.02 0.07 0.30 0.53 0.39 0.23 0.21 0.14 0.27 0.18 1.25 1.30 0.81 1.42 0.77 0.87 0.88 1.36 1.33 1.25 0.97 0.88 0.80 0.67 0.74 1.09 1.31 2.29 2.91 3.34 3.02 3.28 3.11 3.63 2.59 2.50 2.19 2.49 2.95 2.39 2.87 2.64 2.91 3.28 3.47 3.06 2.26 1.78 1.00 1.18 1.70 3.01 2.73 1.78 1.80 1.45 1.74 0.90 0.81 1.21 0.96 1.66 1.18 1.06 0.79 0.93 0.67 0.82 0.59 0.79 0.65 0.55 0.57 0.33 0.41 0.53 0.46 0.86 1.19 1.20 0.87 0.92 0.76 0.43 1.08 0.76 0.99 0.76 0.61 0.51 0.86 1.01
0.00 0.01 0.20 0.09 0.27 0.57 0.52 1.15 1.33 0.40 0.29 0.16 0.30 0.38 0.46 0.76 1.71 1.24 0.42 0.36 0.29 0.53 1.13 1.49 1.40 0.83 0.78 0.90 1.07 0.84 1.43 1.28 1.44 2.12 2.87 3.28 2.44 2.77 2.29 2.32 2.96 2.69 3.10 2.25 2.49 2.18 1.94 2.01 3.54 2.30 2.37 2.54 2.07 2.31 2.96 2.73 2.49 2.83 2.98 1.20 1.23 2.04 1.44 1.11 0.72 0.59 0.90 0.93 1.29 1.58 1.11 0.90 0.37 0.54 1.04 0.85 0.40 0.48 0.78 0.67 0.68 0.64 0.84 0.80 0.95 1.15 1.21 1.06 0.83 1.01 0.89 0.91 1.23 0.92 0.79 1.12 1.31
0.00 0.03 0.05 0.24 0.76 1.09 0.54 1.23 0.71 0.47 0.66 0.66 0.51 0.69 1.38 0.44 0.54 0.43 0.42 0.27 0.66 0.43 0.51 0.64 1.04 1.01 0.83 0.81 1.05 1.63 1.59 0.99 1.47 1.22 1.41 1.71 2.13 2.24 2.65 2.53 2.90 2.87 3.28 2.54 2.31 2.09 1.36 2.03 2.02 2.06 1.94 3.26 2.68 2.93 3.23 2.91 2.32 2.42 2.26 1.37 1.63 1.61 1.67 0.87 0.56 0.77 0.73 0.84 1.00 1.35 1.20 0.81 0.63 0.73 0.66 0.74 0.56 0.22 0.49 0.34 0.36 0.60 0.31 0.47 0.85 0.77 0.88 1.16 1.38 1.10 1.01 0.92 1.03 1.36 1.01 0.79 0.69
0.01 0.03 0.06 0.06 0.30 0.27 0.38 0.29 0.25 0.36 0.26 0.39 0.55 0.93 0.77 0.48 0.35 0.17 0.36 0.44 0.28 0.55 0.59 0.51 0.93 0.85 0.81 0.72 1.05 1.18 1.16 1.29 1.35 1.11 1.30 1.51 2.06 2.46 1.96 1.73 1.91 2.41 2.47 2.77 2.20 1.79 1.09 1.23 1.62 1.98 2.09 3.20 4.04 3.75 3.42 2.64 2.45 1.97 1.97 1.97 1.33 0.99 0.90 0.86 0.80 1.05 0.86 0.87 1.04 1.18 1.20 1.16 1.12 0.74 0.55 0.25 0.38 0.21 0.35 0.38 0.52 0.63 0.40 0.31 0.56 0.52 0.91 0.86 1.01 0.92 0.89 1.16 0.99 1.16 1.19 0.96 0.78
0.08 0.02 0.03 0.05 0.14 0.20 0.46 0.40 0.62 0.33 0.84 0.58 0.69 0.35 1.19 0.72 3.89 0.31 0.57 0.18 0.21 0.18 0.31 0.39 0.59 1.18 1.32 1.38 1.22 1.22 1.28 1.92 1.85 1.13 1.25 1.45 1.78 2.56 1.75 1.64 1.80 2.59 2.92 1.80 2.44 1.98 0.97 1.22 0.91 1.23 2.24 1.89 2.83 4.07 3.90 2.80 2.21 1.68 1.73 2.00 2.03 1.77 1.46 0.98 0.85 1.29 1.21 1.10 1.60 0.93 1.10 0.93 0.67 0.96 1.11 1.32 0.43 0.79 0.65 0.67 0.87 0.80 0.55 0.58 0.47 0.60 0.39 0.62 0.98 0.71 1.06 0.81 1.09 0.62 0.61 0.54 0.54
0.02 0.09 0.04 0.02 0.03 0.01 0.09 0.26 0.20 0.23 0.34 0.48 0.84 0.60 0.60 1.11 0.52 0.44 0.39 0.36 0.29 0.31 0.51 0.66 1.27 1.20 1.36 1.47 1.61 1.32 1.37 1.98 1.60 1.53 1.69 1.82 1.39 1.78 1.45 1.41 1.68 1.64 2.28 1.94 1.48 1.56 1.22 1.64 1.29 1.80 1.99 2.51 3.51 3.29 4.49 3.26 2.35 2.14 2.11 2.02 1.57 1.16 0.82 1.20 1.73 1.59 1.14 1.60 1.51 1.16 1.07 1.13 0.86 0.66 1.15 1.02 0.90 0.53 0.28 0.81 1.03 0.98 0.63 0.64 0.81 0.80 0.81 1.06 1.05 1.47 1.30 1.05 0.97 0.63 0.74 0.61 0.54
0.02 0.02 0.06 0.00 0.01 0.01 0.16 0.04 0.07 0.08 0.22 0.43 0.26 0.49 0.38 0.22 0.43 0.43 0.75 0.88 0.65 0.51 0.54 0.43 1.11 1.24 1.10 1.20 1.18 1.52 1.22 1.47 1.24 1.43 1.82 1.48 1.31 0.71 0.40 1.01 1.46 1.31 1.71 1.27 1.41 1.20 1.32 1.38 1.36 2.31 2.22 2.91 2.31 2.03 2.42 3.46 2.13 2.68 1.87 2.54 1.74 1.56 0.93 0.72 0.80 0.74 0.80 0.88 1.18 1.07 0.95 1.14 0.64 0.62 0.74 0.56 1.08 0.47 0.56 0.55 0.47 0.62 0.70 0.82 1.20 1.01 0.76 0.60 0.92 1.13 1.44 1.15 1.08 0.76 0.61 0.35 0.30
0.01 0.07 0.01 0.00 0.00 0.08 0.05 0.32 0.16 0.22 0.39 0.94 0.25 0.52 0.87 0.60 2.21 0.66 1.10 1.02 1.06 0.53 0.39 0.73 0.91 0.88 1.24 0.87 1.34 1.33 1.66 1.83 1.57 1.59 1.09 0.75 1.03 0.51 0.51 0.56 1.03 1.09 1.19 1.70 1.62 1.50 1.46 1.36 0.99 1.52 2.33 2.06 2.07 2.62 3.03 3.35 2.69 2.31 2.07 1.61 1.00 0.96 0.63 0.93 1.10 1.25 1.23 1.29 1.44 0.62 1.16 0.86 0.86 0.89 0.82 0.78 0.69 0.74 1.32 0.76 0.48 0.41 0.57 0.83 0.68 0.93 0.79 0.78 0.97 0.67 0.90 1.11 0.58 0.71 0.71 0.58 0.54
0.01 0.02 0.01 0.05 0.22 0.18 0.05 0.10 0.32 0.34 0.54 0.64 0.60 0.70 0.61 0.78 1.46 0.56 0.74 0.59 0.68 0.67 0.98 1.23 1.09 1.30 1.73 1.73 1.48 1.65 1.54 1.61 1.53 1.30 0.98 1.27 0.97 0.66 0.60 1.01 0.89 1.06 0.95 1.32 1.85 1.59 0.90 0.66 1.23 1.57 1.80 1.87 1.70 2.07 2.13 2.38 2.40 2.53 2.45 1.58 0.71 0.93 1.00 1.34 1.41 1.15 1.40 1.47 1.11 1.08 1.03 1.15 1.33 0.77 0.67 0.30 0.43 0.71 0.69 0.47 0.63 0.88 1.14 0.86 0.59 0.80 0.92 1.03 0.84 0.56 0.70 0.57 0.43 0.37 0.50 0.45 0.75
0.00 0.00 0.02 0.00 0.06 0.06 0.12 0.04 0.23 0.20 0.50 0.31 1.49 0.92 1.46 1.21 1.62 0.43 0.94 0.84 0.68 0.76 0.51 0.75 1.30 1.55 1.93 2.09 1.91 1.48 1.58 1.84 1.75 1.06 0.74 1.19 0.93 1.14 1.29 1.41 1.54 1.34 1.58 1.52 1.65 1.56 1.50 1.37 1.24 1.33 2.28 2.03 1.80 2.46 2.54 2.69 2.37 2.29 1.90 1.82 1.95 1.88 1.80 1.38 0.84 0.88 0.79 1.04 0.88 1.27 1.40 0.93 0.82 0.82 0.58 0.49 0.62 0.85 0.51 0.53 0.79 0.37 0.43 0.43 0.53 0.52 0.84 1.06 0.77 0.82 0.60 0.38 0.34 0.49 0.41 0.33 0.55
0.01 0.00 0.01 0.01 0.00 0.14 0.03 0.04 0.04 0.25 0.25 0.28 0.56 1.01 1.16 1.05 0.60 0.85 0.83 0.53 0.43 0.52 0.70 1.36 2.04 2.04 2.00 1.67 2.40 2.57 1.93 1.51 0.94 0.78 0.84 1.12 1.24 1.41 1.27 1.13 2.69 2.77 2.23 1.93 1.86 2.06 2.19 1.54 0.65 0.65 1.14 1.15 1.32 1.48 1.53 1.71 2.06 0.98 1.73 1.78 2.21 1.86 1.56 1.85 1.29 0.76 0.81 0.82 1.13 1.07 1.08 1.00 1.19 1.65 0.62 0.73 0.79 0.89 0.56 0.61 0.70 0.49 0.57 0.51 0.58 0.44 0.50 0.83 0.77 0.47 0.58 0.35 0.42 0.69 0.56 0.40 0.41
0.01 0.01 0.04 0.05 0.03 0.12 0.16 0.60 0.03 0.03 0.12 0.37 0.40 1.04 1.32 0.90 0.97 0.90 1.65 1.51 1.41 1.02 1.28 1.69 2.10 2.19 2.07 2.18 2.89 2.70 1.52 1.09 0.61 0.53 0.72 1.57 2.14 1.94 1.48 1.76 2.97 3.39 3.61 2.35 1.88 1.88 2.09 1.37 1.01 1.07 1.34 1.73 1.80 1.17 1.53 1.89 0.96 1.17 1.32 1.14 1.70 1.94 1.76 1.45 1.71 2.09 1.01 0.87 0.78 0.79 0.84 1.18 0.62 1.27 1.19 0.79 0.45 0.76 0.52 0.53 0.55 0.60 0.64 0.77 0.56 0.48 0.60 0.64 0.45 0.58 0.45 0.38 0.34 0.43 0.35 0.48 0.37